Zurück zum Katalog

STARLINK-4188

AktivKommunikationVLEO
NORAD 52843·PAYLOAD·🇺🇸 United States

Gestartet Jun 17, 2022 von Cape Canaveral Space Force Station

Loading…

Nächste Überflüge (nächste 24 Stunden)

TLE

AktuellSource: CelesTrak SupGP

Epoche: Sep 15, 2026, 01:36 UTC

1 52843C 22062P   26258.06715278 -.00011467  00000+0 -36869-3 0  2586
2 52843  53.1572 254.1964 0001041  93.4082 103.1083 15.31712621    16

Verfolge STARLINK-4188 in Echtzeit mit AllMySat

Download on the App Store